Precipitable_Water
1.85 1.84 1.91 2.00 1.97 1.93 1.98 2.01 2.12 2.09 2.07 2.04 2.00 1.98 1.96 1.91 1.91 1.89 1.85 1.84 1.89 1.75
1.93 1.99 2.06 2.11 2.13 2.14 2.16 2.10 2.03 2.06 2.07 2.07 2.02 1.95 1.92 1.83 1.77 1.78 1.78 1.70 1.77 1.72
2.08 2.10 2.09 1.89 2.01 2.10 2.09 2.11 2.13 2.06 1.96 1.94 1.97 1.98 1.91 1.76 1.74 1.74 1.73 1.69 1.64 1.65
1.64 1.61 1.61 1.66 1.70 1.69 1.67 1.81 1.93 1.98 2.02 1.92 1.84 1.83 1.82 1.86 1.85 1.74 1.64 1.66 1.61 1.57
1.49 1.45 1.37 1.27 1.22 1.25 1.25 1.32 1.43 1.61 1.82 1.99 2.01 1.97 1.94 1.85 1.78 1.76 1.76 1.77 1.79 1.75
1.49 1.44 1.28 1.24 1.21 1.17 1.12 1.09 1.14 1.24 1.30 1.42 1.66 1.93 2.04 2.05 2.02 2.01 1.96 1.85 1.78 1.76
1.31 1.31 1.31 1.30 1.27 1.21 1.14 1.06 1.01 0.99 0.99 1.06 1.16 1.25 1.38 1.53 1.67 1.68 1.75 1.83 1.87 1.84
1.31 1.38 1.37 1.31 1.29 1.28 1.24 1.17 1.11 1.04 1.00 0.99 0.97 0.98 0.99 1.01 1.01 1.04 1.13 1.38 1.54 1.62
1.29 1.34 1.32 1.31 1.26 1.20 1.16 1.13 1.08 1.00 0.98 0.95 0.95 0.95 0.95 0.95 0.92 0.93 0.92 0.91 0.98 1.04
1.30 1.30 1.28 1.26 1.23 1.16 1.11 1.10 1.02 0.95 0.94 0.93 0.96 0.98 0.98 0.98 0.95 0.92 0.91 0.90 0.89 0.90
1.35 1.32 1.33 1.28 1.22 1.17 1.11 1.04 0.95 0.86 0.85 0.88 0.91 0.95 0.95 0.96 0.94 0.92 0.93 0.95 0.97 0.97
1.38 1.35 1.34 1.24 1.12 1.10 1.05 1.00 0.92 0.91 0.88 0.87 0.89 0.94 0.95 0.94 0.92 0.90 0.90 0.94 0.97 0.99
1.41 1.36 1.29 1.19 1.14 1.11 1.07 0.99 0.95 0.93 0.94 0.91 0.87 0.89 0.87 0.88 0.86 0.82 0.85 0.90 0.92 0.96
1.42 1.36 1.28 1.16 1.11 1.07 0.99 0.93 0.93 0.89 0.90 0.91 0.91 0.89 0.90 0.91 0.88 0.84 0.83 0.83 0.85 0.90
Wind_Speed
7 5 4 4 4 3 3 2 3 5 7 8 10 10 11 11 10 10 10 9 7 6
6 5 6 6 5 4 3 3 3 4 6 7 8 9 10 10 10 11 11 11 10 9
6 5 5 7 2 2 2 2 3 4 5 6 6 8 9 9 10 11 11 12 11 11
5 3 2 2 3 3 3 3 4 4 6 6 6 7 7 9 9 10 10 11 12 12
4 3 2 1 2 1 2 3 4 5 6 7 7 8 8 9 9 11 11 12 12 13
6 4 2 1 2 2 2 2 2 4 6 7 8 9 10 11 11 12 13 13 13 14
6 4 2 1 2 3 4 4 4 5 6 7 8 9 10 11 12 13 14 15 16 16
8 6 4 3 4 5 5 6 7 7 8 8 9 10 12 13 14 15 15 16 16 17
10 8 6 6 6 7 7 8 9 9 9 10 11 12 13 14 15 16 17 18 19 20
12 10 8 8 9 9 10 11 12 12 12 13 14 14 15 16 17 17 18 20 21 22
14 12 11 11 11 12 13 13 14 14 14 14 15 15 16 17 18 19 20 21 22 23
15 13 12 12 12 13 13 14 15 14 14 13 14 15 16 17 18 19 20 21 22 22
16 14 13 13 13 14 14 14 14 13 13 14 15 16 17 18 19 21 22 22 23 24
16 15 14 14 14 14 14 14 14 14 15 16 17 19 20 21 21 22 23 24 24 25
Wind_Direction
204 214 228 245 243 242 237 223 202 202 206 212 216 221 225 228 229 228 232 236 244 250
205 229 249 257 259 241 229 219 210 202 209 215 218 221 224 227 230 232 237 239 245 252
220 243 281 228 223 242 217 252 221 216 214 216 218 221 224 230 235 239 243 244 245 250
218 226 241 257 273 274 260 256 249 241 228 228 227 227 230 236 240 243 245 244 248 251
183 169 149 70 30 354 276 270 261 249 242 241 238 238 241 245 249 248 250 251 253 256
174 170 151 93 46 19 8 336 289 268 258 256 253 250 252 255 258 258 256 257 258 261
183 181 185 247 321 332 327 318 305 288 275 267 262 259 262 263 264 265 265 263 263 264
199 209 227 264 293 307 310 309 303 294 286 277 272 271 269 269 268 268 268 267 267 267
214 227 247 264 281 293 300 303 302 299 291 284 280 279 277 275 274 273 272 272 271 270
222 233 249 263 276 287 294 297 298 296 292 287 284 283 281 280 278 277 277 276 275 274
227 238 251 265 276 284 290 294 295 294 290 287 285 285 283 282 281 280 279 279 279 278
231 242 255 266 275 282 289 293 295 294 291 290 289 290 289 286 285 284 284 283 283 282
232 244 257 266 273 281 288 291 293 293 290 291 291 292 292 290 287 286 285 284 283 283
236 248 258 266 273 279 285 287 288 289 290 291 292 292 292 291 288 286 285 284 284 285